Regional Weather Roundup
Issued by NWS

Home | Current Version | Previous Version | Text Only | Print | Product List | Glossary Off
Versions: 1 2 3 4 5 6 7 8 9 10 11 12 13 14 15 16 17 18 19 20 21 22 23 24 25 26 27 28 29 30 31 32 33 34 35 36 37 38 39 40 41 42 43 44 45 46 47 48 49 50

613
ASUS43 KMPX 220201
RWRMN
WEATHER ROUNDUP FOR MINNESOTA
NATIONAL WEATHER SERVICE TWIN CITIES/CHANHASSEN MN
800 PM CST SUN JAN 21 2018


NOTE: "FAIR" INDICATES FEW OR NO CLOUDS BELOW 12,000 FEET WITH NO
SIGNIFICANT WEATHER AND/OR OBSTRUCTIONS TO VISIBILITY. N/A MEANS
CURRENT SKY AND/OR WEATHER CONDITIONS ARE NOT AVAILABLE.

MNZ060>063-068>070-220300-
   Twin Cities Metro

CITY           SKY/WX    TMP DP  RH WIND       PRES   REMARKS
TWIN CITIES    CLOUDY    36  30  79 N10       29.96R
ST PAUL        CLOUDY    36  29  75 VRB3      29.97R
CRYSTAL        CLOUDY    36  26  67 N7        29.96R
BLAINE         CLOUDY    37  30  75 N8        29.96R
LAKEVILLE      CLOUDY    34  30  86 NE3       29.94R
EDEN PRAIRIE   CLOUDY    37  28  70 NE10      29.94R
SOUTH ST PAUL  CLOUDY    37  29  73 N6        29.95R
LAKE ELMO      CLOUDY    36  30  80 N6        29.96S
$$
MNZ001>005-007-008-013>017-022>024-027-028-220300-
   Northwest Minnesota

CITY           SKY/WX    TMP DP  RH WIND       PRES   REMARKS
BEMIDJI        CLOUDY    24  23  96 N3        30.06S FOG
HALLOCK        CLOUDY    23  19  86 N6        30.12S WCI  16
ROSEAU         CLOUDY    25  21  86 N5        30.11S WCI  19
WARROAD        CLOUDY    25  21  86 N3        30.11S
CROOKSTON      FAIR      25  23  93 N3        30.12S
FOSSTON        CLOUDY    21  21 100 N8        30.09R FOG     WCI  12
DETROIT LAKES  CLOUDY    27  25  93 N6        30.05S WCI  20
MOORHEAD       CLOUDY    25  21  86 N12       30.10R WCI  14
PARK RAPIDS    CLOUDY    26  22  84 N10       30.03R WCI  16
MAHNOMEN       CLOUDY    23  22  95 N8        30.07R WCI  14
$$
MNZ006-009>011-018-025>026-220300-
   North Central Minnesota

CITY           SKY/WX    TMP DP  RH WIND       PRES   REMARKS
BAUDETTE       CLOUDY    25  23  92 N6        30.08S WCI  18
FLAG ISLAND    CLOUDY    25  21  86 CALM      30.11S
INTL FALLS     CLOUDY    27  24  89 N8        30.07F FOG     WCI  19
WASKISH        CLOUDY    25  25 100 CALM      30.08R
BIG FORK       CLOUDY    27  25  93 CALM      30.06R FOG
LONGVILLE      CLOUDY    27  25  93 N3        30.05R
GRAND RAPIDS   CLOUDY    26  24  92 N6        30.06R WCI  19
CRANE LAKE     CLOUDY    25  23  93 CALM      30.10R
ORR            CLOUDY    25  21  86 CALM      30.05R
COOK           CLOUDY    25  23  93 CALM      30.07R
WALKER         CLOUDY    24  23  96 N5        30.05R FOG     WCI  18
$$
MNZ012-019>021-037-220300-
   Northeast Minnesota

CITY           SKY/WX    TMP DP  RH WIND       PRES   REMARKS
DULUTH         FOG       30  29  96 E12       30.03R VSB 1/4 WCI  20
HIBBING        CLOUDY    26  24  92 NE6       30.04R WCI  19
EVELETH        CLOUDY    25  22  88 NE6       30.05S WCI  18
DULUTH HARBOR  CLOUDY    32  30  93 NE21      30.07S FOG     WCI  20
TWO HARBORS    MIX PCPN  32  27  80 NE9       30.04R WCI  24
SILVER BAY     MIX PCPN  28  28 100 E10G17    30.05R WCI  19
GRAND MARAIS     N/A     28  25  88 NE10G18   30.11R WCI  19
G MARAIS ARPRT CLOUDY    21  18  86 NE3       30.05R FOG
$$
MNZ029>031-032-039>041-046>048-054>057-064-220300-
   West Central Minnesota

CITY           SKY/WX    TMP DP  RH WIND       PRES   REMARKS
FERGUS FALLS   MOCLDY    27  25  93 N7        30.04R WCI  19
WHEATON        CLOUDY    27  23  86 N9        30.07R WCI  17
MORRIS         CLOUDY    30  28  93 N13       30.00S WCI  20
ALEXANDRIA     MOCLDY    30  26  85 NE8       30.00R WCI  22
ELBOW LAKE     FAIR      28  26  92 N6        30.03R WCI  22
WADENA         FAIR      25  21  86 N9        30.02S WCI  15
GLENWOOD       FAIR      30  27  86 N9        29.99F WCI  22
APPLETON       CLOUDY    32  28  86 N9        29.99S WCI  24
BENSON         CLOUDY    34  28  80 NE8       30.00S WCI  27
ORTONVILLE     CLOUDY    28  25  86 N14       30.02R WCI  17
MADISON        CLOUDY    34  30  86 N14       30.00R WCI  24
WILLMAR        FAIR      34  28  80 NE10      29.98F WCI  26
$$
MNZ033>034-036-042>043-049>051-058-059-220300-
   Central Minnesota

CITY           SKY/WX    TMP DP  RH WIND       PRES   REMARKS
ST CLOUD       CLOUDY    33  28  81 N7        29.99R WCI  27
SAUK CENTRE      N/A     31  27  84 N6        30.00S WCI  25
PAYNESVILLE    CLOUDY    33  30  89 N9        29.97F WCI  25
AITKIN         FAIR      27  23  86 N6        30.01R WCI  20
PINE RIVER     CLOUDY    23  21  93 N8        30.07S FOG     WCI  14
BRAINERD       MOCLDY    29  23  78 N9        30.02R WCI  20
STAPLES        FAIR      25  21  86 N6        30.02S WCI  18
LONG PRAIRIE   FAIR      30  27  86 NW5       30.01R WCI  25
LITTLE FALLS   CLOUDY    32  23  69 CALM      30.01S
LITCHFIELD     CLOUDY    36  30  80 N7        29.96S
BUFFALO        CLOUDY    35  28  78 N7        29.97S WCI  29
MAPLE LAKE     CLOUDY    35  31  85 MISG      29.98S
HUTCHINSON     CLOUDY    36  30  80 N12       29.95F
$$
MNZ037-044-045-052-053-220300-
   East Central Minnesota

CITY           SKY/WX    TMP DP  RH WIND       PRES   REMARKS
PRINCETON      MOCLDY    36  28  75 N6        29.99S
MORA           FAIR      32  27  80 CALM      30.02R
CAMBRIDGE      CLOUDY    37  27  65 N8        29.99S
RUSH CITY      CLOUDY    34  28  79 N6        30.00R WCI  29
MOOSE LAKE     CLOUDY    30  28  93 NE7       30.01R FOG     WCI  23
CLOQUET        FOG       28  28 100 E9        30.03R VSB 3/4 WCI  20
MCGREGOR       MOCLDY    30  27  86 N5        30.03R WCI  25
$$
MNZ071>073-080-081-089-090-097-098-220300-
   Southwest Minnesota

CITY           SKY/WX    TMP DP  RH WIND       PRES   REMARKS
MONTEVIDEO     CLOUDY    32  30  93 N10       29.98S WCI  24
GRANITE FALLS  CLOUDY    35  31  88 N10       29.97F WCI  27
CANBY          CLOUDY    32  29  90 NW10      30.00R WCI  23
MARSHALL       CLOUDY    32  29  88 NW12      29.97R WCI  23
REDWOOD FALLS  CLOUDY    35  29  78 VRB3      29.94F
OLIVIA         CLOUDY    34  30  86 N14       29.92F WCI  24
PIPESTONE      CLOUDY    30  27  86 NE12G18   29.91S WCI  21
WINDOM         CLOUDY    34  19  55 N13       29.90R WCI  25
WORTHINGTON    CLOUDY    33  30  88 N17G24    29.89R WCI  22
JACKSON        CLOUDY    34  30  86 N13       29.90R WCI  25
TRACY          CLOUDY    33  31  94 NW8       29.95R WCI  25
SLAYTON        CLOUDY    32  29  90 N17G23    29.92R WCI  21
$$
MNZ065>067-074>077-082>085-091>093-220300-
   South Central Minnesota

CITY           SKY/WX    TMP DP  RH WIND       PRES   REMARKS
MANKATO        CLOUDY    35  29  78 NE10      29.91S WCI  27
NEW ULM        CLOUDY    36  28  75 NE10      29.92F
ST JAMES       CLOUDY    34  30  86 N7        29.92S WCI  28
FAIRMONT       CLOUDY    35  30  82 NE12      29.88F WCI  27
FARIBAULT      CLOUDY    36  30  80 NE7       29.93R
OWATONNA       CLOUDY    36  30  80 N7        29.91R
WASECA         CLOUDY    36  32  87 NE12      29.92R
ALBERT LEA     CLOUDY    36  28  75 NE9       29.88R
$$
MNZ078>079-086>088-094>096-220300-
   Southeast Minnesota

CITY           SKY/WX    TMP DP  RH WIND       PRES   REMARKS
ROCHESTER      CLOUDY    36  30  79 NE12      29.88F
RED WING       CLOUDY    37  27  65 CALM      29.94R
STANTON        CLOUDY    35  31  83 N7        29.93R WCI  30
DODGE CENTER   CLOUDY    36  28  75 NE10      29.89S
WINONA         CLOUDY    39  32  75 NE3       29.90S
AUSTIN         CLOUDY    36  30  80 NE8       29.86F
PRESTON        CLOUDY    36  31  82 NE9       29.88S
$$
ABBREVIATIONS USED IN REMARKS
   TC - TEMPERATURES IN CELSIUS
  WCI - WIND CHILL INDEX
   HX - HEAT INDEX
  VSB - VISIBILITY
$$




USA.gov is the U.S. government's official web portal to all federal, state and local government web resources and services.